Location: Quispamsis
(45.4447°N, 65.9414°W)
Time: 02:25:35
(UTC-03:00)

Daily predictions for brighter satellites

Satellite Brightness Start Highest point End
(mag) Time Altitude Azimuth Time Altitude Azimuth Time Altitude Azimuth
CZ-4C R/B 2.1 00:03:35 35° SSW 00:05:53 66° ESE 00:11:52 10° NE
Cosmos 1980 Rocket 4.2 00:04:57 10° N 00:09:05 20° NE 00:13:13 10° E
Okean 3 Rocket 3.7 00:08:05 40° SSW 00:09:32 68° W 00:13:58 10° N
Meteor 1-16 Rocket 4.2 00:05:06 10° N 00:10:47 89° W 00:13:00 40° S
Cosmos 1627 Rocket 4.4 00:08:12 35° S 00:10:58 86° E 00:17:09 10° N
Cosmos 2228 Rocket 3.8 00:07:50 10° N 00:12:02 41° ENE 00:12:53 36° ESE
Meteor 2-1 Rocket 4.3 00:06:11 10° N 00:12:08 81° E 00:14:19 40° SSE
Cosmos 1486 Rocket 4.3 00:11:12 41° SE 00:12:12 47° ESE 00:17:11 10° NNE
USA 238 DEB 4.4 00:06:15 10° WSW 00:13:12 55° NW 00:20:08 10° NNE
USA 238 4.4 00:06:21 10° WSW 00:13:17 55° NW 00:20:13 10° NNE
Cosmos 1763 Rocket 4.2 00:08:20 10° N 00:13:27 45° ENE 00:15:32 30° ESE
Cosmos 2278 3.7 00:11:47 10° NNW 00:17:29 82° ENE 00:19:32 41° SSE
Cosmos 1470 3.8 00:15:00 10° NNW 00:18:34 35° W 00:19:20 32° WSW
Cosmos 1408 Rocket 3.5 00:21:14 58° SSE 00:22:01 75° E 00:26:30 10° NNE
COSMOS 2487 4.2 00:24:51 21° WSW 00:26:25 29° WNW 00:29:37 10° N
Cosmos 405 Rocket 2.9 00:27:35 56° E 00:27:35 56° E 00:31:10 10° NNE
Cosmos 1697 Rocket 3.7 00:23:00 10° NNW 00:28:18 39° NE 00:31:19 22° ESE
Cosmos 1943 Rocket 4.4 00:26:58 10° WNW 00:29:13 13° W 00:31:29 10° WSW
CENTAUR R/B 3.7 00:29:35 23° ESE 00:30:04 23° ESE 00:35:04 10° ENE
ALOS 2 2.8 00:32:11 49° ESE 00:32:59 59° ENE 00:37:20 10° N
Cosmos 1818 3.6 00:27:42 10° NW 00:33:08 64° WSW 00:34:29 47° S
Cosmos 1689 Rocket 3.2 00:34:48 41° NE 00:34:48 41° NE 00:37:35 10° N
Cosmos 2082 Rocket 2.7 00:34:49 38° SE 00:35:44 41° ESE 00:41:02 10° NE
Cosmos 1833 Rocket 3.5 00:35:45 31° ESE 00:36:26 32° ESE 00:41:24 10° NE
CZ-4B R/B 1.9 00:37:33 56° E 00:37:39 56° ENE 00:41:18 10° N
ISS -1.3 00:35:13 10° NW 00:38:08 29° N 00:41:01 10° ENE
H-2A R/B 2.4 00:37:54 10° NNE 00:41:37 60° E 00:41:37 60° E
Landsat 5 3.6 00:41:45 53° E 00:42:10 57° ENE 00:46:13 10° N
Cosmos 1656 4.0 00:37:49 10° NNW 00:43:30 62° ENE 00:45:42 36° SE
Cosmos 1553 Rocket 4.0 00:39:08 10° N 00:45:31 80° W 00:47:54 41° S
NOSS 3-2 (C) 3.6 00:43:08 24° SW 00:47:08 80° NW 00:53:57 10° NE
Cosmos 1707 4.4 00:50:19 22° WSW 00:51:29 26° WNW 00:54:49 10° NNW
Cosmos 1743 Rocket 3.5 00:51:30 66° SE 00:51:59 74° E 00:56:27 10° NNE
Cosmos 724 4.3 00:54:47 48° SSE 00:56:04 59° ESE 01:01:51 10° NE
Cosmos 841 Rocket 3.4 00:51:16 10° NNW 00:56:34 89° W 00:57:52 53° SSE
Cosmos 1378 3.4 00:56:29 59° W 00:56:36 60° W 01:00:22 10° N
Cosmos 1076 Rocket 4.1 00:56:04 41° WSW 00:56:53 46° WNW 01:01:00 10° N
Lacrosse 5 rocket 3.0 00:54:40 10° NW 00:58:34 34° NNE 01:02:23 11° E
CZ-4C R/B 3.9 00:59:32 39° WNW 00:59:32 39° WNW 01:02:00 10° NNW
Terra 4.3 00:59:07 10° W 00:59:55 10° W 01:00:42 10° WNW
Cosmos 2221 4.0 00:56:37 10° NNW 01:00:10 26° W 01:00:54 24° WSW
CZ-2C R/B 3.6 00:55:26 10° NNE 01:00:23 33° E 01:01:31 30° ESE
Cosmos 1437 Rocket 3.8 00:57:25 10° N 01:01:02 35° ENE 01:01:21 34° E
Cosmos 1354 Rocket 4.0 01:01:08 53° SSE 01:02:13 69° ESE 01:07:30 10° NNE
Cosmos 1674 3.9 01:03:45 31° E 01:03:45 31° E 01:06:51 10° NNE
Cosmos 1503 Rocket 4.0 01:05:05 54° S 01:06:13 71° ESE 01:11:31 10° NNE
Cosmos 1766 Rocket 4.5 01:06:17 35° WSW 01:07:22 42° WNW 01:11:39 10° N
Cosmos 1500 Rocket 3.4 01:07:52 70° SE 01:08:11 74° E 01:12:30 10° NNE
Cosmos 1328 Rocket 3.6 01:05:15 10° NNW 01:09:37 65° W 01:10:01 61° SW
Meteor 2-20 4.4 01:07:55 45° S 01:09:58 83° E 01:16:10 10° N
Cosmos 1867 3.7 01:08:44 35° SW 01:11:04 72° NW 01:16:35 10° NNE
Cosmos 2266 Rocket 4.0 01:09:11 44° S 01:11:26 82° E 01:17:52 10° N
Cosmos 2315 Rocket 4.2 01:08:53 10° N 01:15:12 66° E 01:17:32 39° SSE
SL-16 R/B 4.1 01:11:54 10° N 01:16:33 25° NE 01:21:11 10° ESE
In-Cosmos 22 4.1 01:15:25 49° SSW 01:17:02 85° W 01:22:48 10° N
Lacrosse 5 1.7 01:17:41 10° NW 01:22:46 77° SW 01:23:43 58° SSE
Cosmos 2322 Rocket 3.8 01:21:13 10° N 01:26:09 30° NE 01:31:00 10° ESE
Cosmos 1515 Rocket 3.8 01:22:19 10° NNW 01:26:42 55° W 01:27:06 53° WSW
Cosmos 2058 4.0 01:29:19 31° E 01:29:38 32° E 01:33:20 10° NNE
Helios 1A Rocket 3.0 01:28:47 10° N 01:32:50 66° WNW 01:33:12 62° WSW
Cosmos 2344 3.7 01:35:51 28° SW 01:40:27 85° NW 01:49:36 10° NE
Cosmos 540 Rocket 3.4 01:42:36 10° NNW 01:47:48 85° WSW 01:49:03 53° SSE
BREEZE-M TANK 3.4 01:39:28 10° WSW 01:51:44 55° SSE 01:55:11 10° E
CZ-2C R/B 3.3 01:49:57 40° SSE 01:52:03 75° ENE 01:57:51 10° N
SL-14 R/B 4.4 01:52:06 32° E 01:52:19 32° E 01:55:47 10° NNE
Cosmos 1980 Rocket 2.1 01:48:07 10° NNW 01:53:47 80° WSW 01:55:32 46° SSE
Cosmos 2360 Rocket 4.5 01:49:41 10° N 01:53:53 21° NE 01:58:05 10° E
BREEZE-M DEB (TANK) 3.8 01:42:42 10° W 01:53:58 59° N 01:57:21 10° ENE
CZ-4C R/B 4.0 01:49:58 10° W 01:54:55 31° NNW 02:00:27 10° NNE
BREEZE-M DEB (TANK) 3.0 01:54:40 10° WNW 01:57:06 67° NNE 02:03:21 10° ESE
Cosmos 2151 2.9 01:57:24 66° SW 01:57:50 74° W 02:02:05 10° N
Cosmos 1805 Rocket 3.6 01:59:14 60° SSE 01:59:52 71° E 02:04:19 10° NNE
Cosmos 1328 3.6 02:01:00 79° SW 02:01:11 83° W 02:05:12 10° N
Cosmos 332 Rocket 3.6 01:59:06 10° NNW 02:03:56 82° WSW 02:04:56 56° S
Cosmos 1633 Rocket 3.6 02:04:28 43° SE 02:05:18 49° E 02:09:35 10° NNE
Cosmos 1151 Rocket 3.9 02:03:17 10° NNW 02:07:09 34° W 02:07:19 34° W
Aureole 1 Rocket 3.9 02:02:36 10° NNW 02:07:23 52° WSW 02:08:45 43° SSW
Cosmos 1908 4.5 02:04:38 10° NNW 02:07:44 29° W 02:07:44 29° W
CZ-4B R/B 4.2 02:11:20 11° W 02:11:20 11° W 02:12:01 10° WNW
Cosmos 1300 2.5 02:08:02 10° N 02:11:55 89° WSW 02:12:04 82° S
Cosmos 1697 Rocket 3.4 02:07:05 10° NW 02:12:14 36° WSW 02:13:03 34° SW
Cosmos 1437 3.0 02:12:34 67° NE 02:12:34 67° NE 02:15:35 10° NNE
Cosmos 1707 Rocket 3.4 02:08:06 10° N 02:12:28 79° W 02:13:04 64° SSW
ISS -2.0 02:11:38 10° WNW 02:13:33 32° NW 02:13:33 32° NW
Meteor 1-11 4.3 02:14:59 42° S 02:17:03 78° E 02:22:54 10° NNE
Cosmos 405 3.9 02:14:01 10° NNW 02:17:00 38° WNW 02:17:00 38° WNW
Cosmos 1666 Rocket 3.4 02:16:53 61° S 02:17:35 81° E 02:21:56 10° N
Cosmos 2242 Rocket 3.6 02:14:17 10° N 02:18:42 72° E 02:19:46 49° SSE
Cosmos 1726 2.0 02:15:53 10° N 02:19:35 83° E 02:19:46 79° SE
ATLAS 5 CENTAUR R/B 3.3 02:18:56 22° SE 02:19:51 23° ESE 02:23:53 10° ENE
CENTAUR R/B 2.7 02:16:44 32° SW 02:19:53 74° NW 02:26:56 10° NE
Cosmos 2082 Rocket 3.4 02:16:39 19° WSW 02:19:54 34° NW 02:25:05 10° NNE
Cosmos 1833 Rocket 3.6 02:17:26 25° WSW 02:20:14 42° NW 02:25:36 10° NNE
Cosmos 1470 Rocket 4.4 02:27:17 33° SE 02:28:36 43° E 02:32:47 10° NNE
Cosmos 1933 Rocket 4.3 02:31:25 34° SE 02:32:46 45° E 02:37:00 10° NNE
ASTEX 1 3.5 02:30:16 10° N 02:35:11 63° W 02:36:38 43° SW
Lacrosse 5 rocket 1.6 02:33:48 10° WNW 02:38:01 52° SW 02:38:02 52° SW
Cosmos 1455 3.1 02:35:02 10° N 02:38:39 42° ENE 02:40:00 29° SE
Sich 1 3.1 02:39:15 50° SW 02:40:16 68° W 02:44:42 10° N
CZ-2C R/B 3.6 02:35:37 10° N 02:40:41 38° WNW 02:43:03 26° WSW
Cosmos 968 Rocket 3.4 02:39:55 43° SSW 02:41:39 85° WNW 02:46:51 10° NNE
Abrixas 3.6 02:43:01 22° WNW 02:44:38 45° N 02:47:38 10° ENE
Cosmos 1626 3.3 02:43:37 30° SE 02:44:38 36° E 02:48:07 10° NNE
Cosmos 1386 Rocket 4.4 02:43:23 34° S 02:46:20 85° E 02:52:28 10° N
Landsat 4 3.5 02:49:51 59° S 02:50:27 77° WSW 02:54:12 10° NNW
Cosmos 371 Rocket 3.7 02:48:46 10° NW 02:53:21 43° WSW 02:54:14 38° SW
Cosmos 304 Rocket 4.1 02:53:19 10° NNW 02:58:08 63° ENE 03:01:54 16° SE
SL-16 R/B 2.2 02:55:30 10° NNW 03:01:07 62° WSW 03:03:55 29° S
GENESIS II 4.4 02:56:58 10° NNW 03:01:08 75° NE 03:04:21 16° SE
ATLAS CENTAUR R/B 3.1 02:58:11 10° NNW 03:02:41 38° NE 03:06:50 10° ESE
Cosmos 1745 Rocket 4.3 03:00:50 30° SW 03:03:53 54° WNW 03:10:05 10° N
Lacrosse 5 4.0 03:02:21 10° W 03:02:51 11° W 03:02:51 11° W
Nadezhda 1 Rocket 4.2 03:00:05 10° NNW 03:06:01 51° W 03:08:46 30° SSW
Cosmos 1862 Rocket 3.5 03:01:50 10° N 03:06:19 80° W 03:08:06 36° S
Cosmos 2322 Rocket 2.4 03:05:01 10° NW 03:10:25 48° WSW 03:12:46 30° SSW
USA 161 3.5 03:12:07 16° ESE 03:13:09 20° ENE 03:15:03 10° NNE
CZ-2D R/B 4.2 03:10:49 10° NE 03:14:33 19° E 03:18:19 10° SE
Cosmos 1709 Rocket 4.0 03:11:15 26° S 03:15:01 87° E 03:21:17 10° N
Meteor 2-10 4.3 03:12:27 10° NNW 03:17:34 53° W 03:20:05 29° SSW
Meteor 1-4 Rocket 3.1 03:15:22 10° NNW 03:19:00 44° W 03:19:43 39° SW
SL-16 R/B 3.7 03:17:08 10° SE 03:22:58 43° ENE 03:28:49 10° N
Cosmos 923 Rocket 4.2 03:18:36 10° NNW 03:23:44 54° WSW 03:26:25 26° S
Cosmos 773 Rocket 4.5 03:22:49 10° NW 03:27:35 39° WSW 03:29:35 28° SSW
AQUA 3.8 03:25:54 10° NNE 03:30:42 86° ESE 03:33:26 26° SSW
Cosmos 1680 Rocket 3.5 03:26:12 10° NNW 03:31:21 60° WSW 03:34:46 21° S
Cosmos 1777 Rocket 4.4 03:28:51 26° SW 03:31:40 52° WNW 03:36:52 10° NNE
NPP 3.6 03:26:22 10° NNE 03:31:47 81° WNW 03:35:03 25° SSW
ERS-2 2.3 03:29:33 10° N 03:33:12 58° WNW 03:34:37 33° SW
Cosmos 1271 Rocket 3.6 03:30:11 10° NNW 03:33:31 30° W 03:34:09 28° WSW
Cosmos 1869 Rocket 4.2 03:31:23 19° SSE 03:34:22 53° E 03:38:43 10° NNE
SL-23 DEB 4.0 03:32:42 10° WNW 03:35:47 58° NNE 03:39:22 10° ESE
Cosmos 2292 Rocket 3.0 03:34:34 35° SSW 03:35:54 80° W 03:40:02 10° N
Cosmos 1980 Rocket 4.1 03:34:56 10° WNW 03:36:49 12° W 03:37:17 12° W
USA 215 3.5 03:31:23 10° ENE 03:37:50 58° SE 03:42:14 21° SSW
Cosmos 1869 3.7 03:34:39 10° NNW 03:38:28 44° W 03:39:56 30° SW
Cosmos 2360 Rocket 2.1 03:32:54 10° NNW 03:38:33 78° WSW 03:44:10 10° SSE
Cosmos 2221 Rocket 3.6 03:38:05 10° N 03:42:38 86° W 03:46:09 17° S
CBERS-1 4.0 03:39:22 10° N 03:44:29 74° WNW 03:47:48 22° SSW
ARIANE 5 R/B 3.1 03:45:39 10° NNE 03:50:39 53° E 03:55:08 12° S
IRS-1C 4.1 03:45:25 10° NNE 03:50:47 80° WNW 03:54:36 20° SSW
Resurs 1-4 Rocket 3.1 03:49:07 10° NNE 03:54:11 43° E 03:59:13 10° S
EO 1 Del DPAF 3.4 03:54:48 10° SSE 03:58:42 76° ENE 04:02:37 10° N
IRS-1D 4.0 03:55:30 10° NNE 04:00:48 60° E 04:05:53 11° S
Cosmos 1898 Rocket 3.7 03:57:36 16° S 04:01:44 68° ESE 04:06:53 10° NNE
Cosmos 1703 Rocket 3.8 03:57:49 10° NNW 04:02:03 51° W 04:05:04 18° SSW
Cosmos 2322 3.9 03:57:58 10° NW 04:03:31 51° WSW 04:09:01 10° S
Cosmos 1937 Rocket 4.2 03:58:49 12° S 04:03:34 51° ESE 04:08:42 10° NNE
Cosmos 2219 3.4 03:59:21 16° SSW 04:03:56 73° ESE 04:09:41 10° NNE
ATLAS 5 CENTAUR R/B 2.3 04:00:28 18° WSW 04:04:05 57° NW 04:09:24 10° NNE
SL-08 R/B 4.4 04:09:01 18° SW 04:11:36 28° W 04:15:49 10° NW
CENTAUR R/B 4.4 04:06:26 10° W 04:11:51 26° NNW 04:17:47 10° NNE
SL-08 ROCKET BODY 4.5 04:06:39 11° S 04:12:31 88° E 04:18:44 10° N
Okean 1-7 3.1 04:09:00 10° NNW 04:13:20 62° W 04:17:32 11° S
Cosmos 1455 4.1 04:11:59 10° NW 04:13:59 14° W 04:15:01 13° WSW
Meteor 1-26 Rocket 4.2 04:13:23 10° NNW 04:18:53 65° W 04:24:19 10° S
Cosmos 1626 4.1 04:18:21 12° WSW 04:20:14 16° WNW 04:22:41 10° NNW
ADEOS 4.0 04:15:14 10° N 04:20:18 50° WNW 04:24:36 14° SW
Abrixas 2.5 04:17:50 10° WNW 04:20:56 89° NNE 04:24:02 10° ESE
Cosmos 1933 4.4 04:19:32 10° NNW 04:22:59 27° W 04:25:27 15° SW
Coronas F rocket 4.2 04:21:32 10° SE 04:23:16 16° E 04:25:02 10° NE
Cosmos 389 Rocket 2.6 04:22:35 10° N 04:26:18 85° ENE 04:29:58 10° SSE
Nadezhda 3 Rocket 4.2 04:20:30 10° N 04:26:41 77° E 04:32:50 10° SSE
Cosmos 1782 4.3 04:23:16 10° N 04:27:03 38° ENE 04:30:47 10° SE
Cosmos 2333 Rocket 3.2 04:21:42 10° NNW 04:27:18 53° ENE 04:32:53 10° SE
Cosmos 2150 Rocket 4.1 04:23:41 14° SSW 04:28:22 71° WNW 04:33:47 10° NNE
SME Rocket 3.6 04:24:03 10° SSE 04:29:51 78° ENE 04:34:02 10° NNW
Cosmos 2154 Rocket 4.2 04:29:00 10° S 04:35:20 81° E 04:41:43 10° N
BREEZE-M DEB (TANK) 3.3 04:27:28 10° W 04:35:42 84° SSW 04:38:52 10° ESE
SWAS 4.4 04:33:22 10° NNW 04:37:41 75° WSW 04:41:58 10° SSE
COSMOS 2428 2.9 04:32:22 10° NW 04:37:53 53° WSW 04:43:22 10° S
USA 129 1.6 04:38:34 23° SW 04:39:03 30° W 04:40:29 10° NNW
Cosmos 1892 2.9 04:37:18 10° S 04:41:11 75° E 04:45:02 10° NNE
ATLAS CENTAUR R/B 2.3 04:37:37 10° NW 04:41:42 31° WSW 04:45:29 10° S
Cosmos 2074 Rocket 4.5 04:37:01 10° SSW 04:42:54 46° WNW 04:48:55 10° N
Cosmos 1674 Rocket 3.7 04:40:12 10° N 04:44:33 77° E 04:48:53 10° SSE
Cosmos 2237 Rocket 2.7 04:41:50 10° NNW 04:47:32 66° ENE 04:53:11 10° SE
USA 229 DEB 3.9 04:40:56 10° SW 04:47:47 70° NW 04:54:49 10° NE
USA 229 3.9 04:41:02 10° SW 04:47:53 71° NW 04:54:55 10° NE
Cosmos 1340 Rocket 3.5 04:44:51 10° S 04:48:47 54° E 04:52:41 10° NNE
CZ-2C R/B 3.7 04:45:50 10° SSE 04:50:22 87° W 04:55:01 10° NNW
CZ-2D R/B 2.3 04:49:51 10° N 04:55:02 60° WNW 05:00:16 10° SSW
Cosmos 292 Rocket 4.3 04:52:38 10° NW 04:57:04 38° WSW 05:01:28 10° S
UNK 4.4 04:53:39 10° SSW 04:57:49 35° W 05:02:03 10° NNW
Cosmos 2219 Rocket 2.2 04:52:51 10° NNW 04:58:26 72° WSW 05:03:59 10° SSE
Okean O Rocket 1.8 04:54:29 10° NNE 04:58:56 78° ESE 05:03:19 10° S
Cosmos 990 Rocket 4.0 04:56:01 10° SSW 05:01:11 74° WNW 05:06:21 10° NNE
BREEZE-M DEB (TANK) 3.2 04:53:33 10° SW 05:02:58 62° SSE 05:06:04 10° ENE
Meteor 2-10 Rocket 3.6 04:59:23 10° NNW 05:04:24 60° W 05:09:32 10° S
CZ-2D R/B 3.5 05:02:00 10° N 05:06:07 70° WNW 05:10:07 10° SSW
SL-16 R/B 3.2 05:00:58 10° SSW 05:06:38 36° W 05:12:23 10° NNW
NOSS 3-1 (A) 4.1 05:02:23 10° SSW 05:08:05 52° ESE 05:14:25 10° NE
